Weather History for MMLO - November, 2013

Change the Weather History Date:

Tuesday, November 5, 2013

  Actual Average Record
Temperature  
Mean Temperature 70 °F -  
Max Temperature 84 °F 78 °F 86 °F (2003)
Min Temperature 55 °F 47 °F 37 °F (2010)
Cooling Degree Days 4    
Growing Degree Days 20 (Base 50)    
Moisture  
Dew Point 54 °F    
Average Humidity 67    
Maximum Humidity 94    
Minimum Humidity 29    
Precipitation  
Precipitation 0.00 in - - ()
Sea Level Pressure  
Sea Level Pressure 30.06 in    
Wind  
Wind Speed 2 mph ()    
Max Wind Speed 14 mph    
Max Gust Speed -    
Visibility 8.6 miles    
Events      
Averages and records for this station are not official NWS values.
T = Trace of Precipitation, MM = Missing Value Source: Averaged Metar Reports

Daily Weather History Graph

Daily Weather History Graph

Search for Another Location

Airport or City:

Trip Planner

Search our weather history database for the weather conditions in past years. The results will help you decide how hot, cold, wet, or windy it might be!

Date:

Astronomy

Nov. 05, 2013 Rise Set
Actual Time 6:50 AM CST 6:08 PM CST
Civil Twilight 6:27 AM CST 6:31 PM CST
Nautical Twilight 6:01 AM CST 6:57 PM CST
Astronomical Twilight 5:35 AM CST 7:23 PM CST
Moon 8:57 AM CST (11/5) 8:21 PM CST (11/5)
Length of Visible Light 12h 03m
Length of Day
11h 17m
Waxing Crescent, 7% of the Moon is Illuminated
Nov 5
Waxing Crescent
Nov 9
First Quarter
Nov 17
Full
Nov 25
Last Quarter
Dec 2
New

Hourly Weather History & Observations

Time (CST) Temp. Heat Index Dew Point Humidity Pressure Visibility Wind Dir Wind Speed Gust Speed Precip Events Conditions
12:40 AM 57.2 °F - 53.6 °F 88% 30.21 in 8.0 mi Calm Calm - N/A   Mostly Cloudy
2:43 AM 55.4 °F - 53.6 °F 94% 29.84 in 8.0 mi Calm Calm - N/A   Scattered Clouds
3:45 AM 55.4 °F - 53.6 °F 94% 30.18 in 8.0 mi Calm Calm - N/A   Clear
4:43 AM 55.4 °F - 53.6 °F 94% 30.18 in 8.0 mi Calm Calm - N/A   Clear
5:44 AM 57.2 °F - 53.6 °F 88% 29.83 in 8.0 mi Calm Calm - N/A   Scattered Clouds
6:42 AM 55.4 °F - 53.6 °F 94% 30.21 in 8.0 mi Calm Calm - N/A   Partly Cloudy
7:44 AM 57.2 °F - 55.4 °F 94% 30.24 in 8.0 mi Calm Calm - N/A   Partly Cloudy
8:46 AM 66.2 °F - 57.2 °F 73% 29.89 in 8.0 mi Calm Calm - N/A   Partly Cloudy
9:49 AM 73.4 °F - 57.2 °F 57% 30.24 in 8.0 mi Calm Calm - N/A   Mostly Cloudy
10:46 AM 75.2 °F - 57.2 °F 53% 30.24 in 9.0 mi Calm Calm - N/A   Mostly Cloudy
11:44 AM 78.8 °F - 57.2 °F 47% 29.81 in 9.0 mi WSW 5.8 mph - N/A   Mostly Cloudy
12:44 PM 80.6 °F 80.3 °F 53.6 °F 39% 30.18 in 10.0 mi Calm Calm - N/A   Mostly Cloudy
1:45 PM 84.2 °F - 51.8 °F 33% 30.15 in 10.0 mi SW 8.1 mph - N/A   Mostly Cloudy
2:42 PM 84.2 °F - 48.2 °F 29% 29.69 in 10.0 mi SSW 6.9 mph - N/A   Mostly Cloudy
3:44 PM 82.4 °F - 50.0 °F 32% 30.09 in 10.0 mi NE 9.2 mph - N/A   Mostly Cloudy
4:51 PM 71.6 °F - 53.6 °F 53% 30.09 in 10.0 mi ENE 9.2 mph - N/A   Mostly Cloudy
5:45 PM 68.0 °F - 53.6 °F 60% 29.77 in 10.0 mi East 5.8 mph - N/A   Mostly Cloudy
6:45 PM 66.2 °F - 55.4 °F 68% 30.15 in 8.0 mi NW 9.2 mph - N/A   Mostly Cloudy
7:48 PM 64.4 °F - 53.6 °F 68% 30.18 in 8.0 mi NW 5.8 mph - N/A   Mostly Cloudy
9:40 PM 64.4 °F - 55.4 °F 73% 30.20 in 8.0 mi NNE 9.2 mph - N/A   Mostly Cloudy
10:43 PM 64.4 °F - 53.6 °F 68% 30.19 in 8.0 mi NE 13.8 mph - N/A   Mostly Cloudy
11:50 PM 64.4 °F - 53.6 °F 68% 29.75 in 8.0 mi NE 9.2 mph - N/A   Mostly Cloudy